Total_Precipitation_Accumulation
3.22 3.57 3.60 3.56 3.48 3.56 3.48 3.33 3.13 3.13 3.11 2.92 2.69 2.71 2.75 2.75 2.87 3.09 3.24 3.24 3.32 3.66 4.24 4.59 4.64 4.44 4.29 4.21 4.24 3.99 3.73 3.58 3.46 3.20 2.99 2.84 2.69 2.58 2.53 2.52 2.46 2.26 2.19
3.72 3.98 4.05 4.01 3.79 3.80 3.75 3.65 3.46 3.51 3.51 3.46 3.24 3.12 3.03 3.03 3.03 3.11 3.40 3.61 3.52 3.57 4.11 4.80 5.13 5.07 4.86 4.61 4.45 4.15 3.93 3.80 3.70 3.50 3.21 2.96 2.70 2.61 2.59 2.58 2.58 2.41 2.26
4.29 4.42 4.49 4.28 4.10 4.10 4.27 4.27 4.14 4.07 3.76 3.64 3.59 3.60 3.44 3.22 3.19 3.32 3.57 4.03 3.91 4.02 4.26 4.45 4.66 4.71 4.91 4.97 4.89 4.70 4.31 4.02 3.91 3.80 3.51 3.30 3.03 2.79 2.71 2.69 2.75 2.68 2.47
4.36 4.57 4.57 4.43 4.34 4.34 4.64 4.81 4.75 4.65 4.41 4.29 4.07 3.83 3.60 3.54 3.47 3.58 3.69 3.96 4.26 4.27 4.51 4.44 4.34 4.37 4.67 4.91 5.02 5.08 4.83 4.36 4.13 4.17 4.02 3.74 3.41 3.18 2.99 2.86 2.86 2.82 2.69
4.72 4.84 4.70 4.71 4.77 4.88 4.90 4.65 4.84 4.70 4.69 4.61 4.09 3.87 3.60 3.55 3.72 3.66 3.73 3.82 4.09 4.19 4.32 4.24 4.23 4.31 4.56 4.90 5.02 5.17 5.20 4.90 4.55 4.39 4.44 4.25 3.91 3.55 3.27 3.03 2.85 2.78 2.73
5.12 5.40 5.33 5.24 5.26 5.27 5.12 5.02 5.09 4.81 4.68 4.63 4.07 3.86 3.63 3.52 3.56 3.67 3.64 3.70 3.70 3.62 3.67 3.71 3.97 3.91 4.18 4.45 4.57 4.80 5.12 5.23 4.93 4.58 4.42 4.43 4.15 3.65 3.23 3.05 2.93 2.84 2.77
5.91 5.99 5.80 5.66 5.51 5.49 5.45 5.44 5.32 5.08 4.80 4.79 4.70 4.30 3.75 3.49 3.48 3.43 3.46 3.52 3.52 3.46 3.54 3.58 3.48 3.40 3.44 3.71 3.90 4.18 4.60 5.03 5.05 4.91 4.74 4.59 4.35 3.87 3.39 3.07 2.99 2.93 2.84
6.02 5.93 6.07 6.03 5.88 5.79 5.65 5.47 5.38 5.20 4.82 4.75 4.74 4.71 4.19 3.87 3.43 3.00 3.01 3.06 3.22 3.42 3.31 3.19 3.23 3.27 3.15 3.23 3.23 3.62 4.02 4.42 4.76 4.84 4.68 4.47 4.20 3.93 3.74 3.47 3.25 3.12 3.02
6.11 5.91 5.82 5.69 5.63 5.52 5.49 5.36 5.16 5.00 4.78 4.64 4.57 4.78 4.44 4.00 3.56 3.22 2.83 2.77 2.95 3.11 3.02 2.99 2.89 2.99 3.05 3.17 3.12 3.29 3.54 3.63 4.12 4.52 4.63 4.41 4.14 3.91 3.74 3.62 3.49 3.38 3.29
5.63 5.40 5.33 5.29 5.20 4.87 4.76 4.63 4.61 4.46 4.33 4.13 4.16 4.04 3.91 3.77 3.80 3.70 3.39 3.15 3.09 3.09 3.03 2.87 2.76 2.90 2.94 3.07 3.21 3.14 3.10 3.06 3.39 3.88 4.32 4.37 4.14 4.02 3.92 3.81 3.71 3.64 3.60
5.02 4.74 4.66 4.58 4.36 3.99 3.70 3.66 3.86 3.89 3.86 3.77 3.79 3.76 3.78 3.65 3.53 3.54 3.52 3.41 3.33 3.12 3.00 3.00 2.97 2.92 2.86 2.87 2.99 3.06 2.97 2.74 2.79 3.01 3.52 3.94 4.11 4.16 4.09 3.90 3.83 3.79 3.79
4.48 4.09 3.75 3.58 3.34 3.17 3.01 3.04 3.18 3.25 3.48 3.58 3.71 3.70 3.72 3.62 3.42 3.40 3.31 3.28 3.34 3.22 3.01 2.84 2.79 2.78 2.76 2.70 2.64 2.90 2.66 2.47 2.42 2.47 2.70 3.03 3.43 3.73 3.73 3.77 3.87 3.92 3.98
3.72 3.38 3.06 2.99 2.88 2.79 2.73 2.78 2.85 2.85 2.95 3.13 3.26 3.38 3.43 3.39 3.36 3.39 3.49 3.45 3.31 3.13 3.02 2.78 2.55 2.49 2.52 2.62 2.60 2.66 2.39 2.26 2.17 2.13 2.13 2.24 2.44 2.77 3.05 3.30 3.48 3.63 3.69
2.90 2.70 2.48 2.32 2.32 2.40 2.35 2.49 2.57 2.60 2.62 2.67 2.69 2.99 3.10 3.07 3.11 3.10 3.14 3.32 3.40 3.19 2.90 2.64 2.43 2.31 2.25 2.22 2.33 2.39 2.06 2.05 1.89 1.85 1.84 1.89 1.95 2.07 2.25 2.43 2.57 2.65 2.74
2.19 2.05 1.97 1.96 1.94 2.00 2.16 2.23 2.22 2.25 2.38 2.41 2.45 2.62 2.64 2.59 2.66 2.75 2.86 3.03 3.28 3.26 2.95 2.56 2.33 2.14 1.99 1.91 2.06 1.91 1.82 1.84 1.65 1.54 1.53 1.57 1.60 1.69 1.78 1.87 2.02 2.05 2.03
1.90 1.85 1.78 1.73 1.70 1.71 1.77 1.89 1.95 1.99 2.05 2.17 2.27 2.31 2.33 2.27 2.32 2.41 2.61 2.77 2.88 2.96 2.80 2.35 2.03 1.85 1.78 1.64 1.83 1.71 1.75 1.77 1.49 1.41 1.38 1.45 1.51 1.56 1.57 1.61 1.66 1.76 1.78
1.68 1.62 1.56 1.48 1.44 1.44 1.52 1.64 1.68 1.73 1.81 1.92 2.03 2.06 2.10 2.09 2.19 2.20 2.25 2.30 2.44 2.57 2.53 2.20 1.99 1.90 1.83 1.71 1.75 1.77 1.74 1.68 1.48 1.44 1.34 1.36 1.40 1.41 1.41 1.43 1.43 1.47 1.59
1.60 1.57 1.46 1.36 1.27 1.27 1.34 1.38 1.39 1.45 1.61 1.67 1.73 1.81 1.78 1.82 1.92 1.89 1.96 2.01 2.10 2.25 2.29 2.26 2.15 2.07 1.96 1.82 1.83 1.82 1.54 1.36 1.34 1.39 1.27 1.17 1.17 1.16 1.18 1.21 1.21 1.17 1.21
1.61 1.51 1.36 1.27 1.21 1.18 1.21 1.27 1.33 1.34 1.43 1.50 1.52 1.59 1.60 1.66 1.62 1.56 1.64 1.74 1.79 1.85 2.07 2.09 2.00 1.97 1.83 1.69 1.83 1.72 1.57 1.68 1.31 1.25 1.15 1.07 1.03 0.98 1.00 1.01 1.03 1.01 0.97
1.53 1.45 1.38 1.29 1.22 1.16 1.17 1.20 1.23 1.33 1.38 1.38 1.37 1.40 1.36 1.38 1.42 1.47 1.51 1.68 1.76 1.90 1.98 1.98 1.91 1.87 1.78 1.69 1.84 1.81 1.79 1.75 1.47 1.12 1.08 0.95 1.00 0.97 0.93 0.91 0.89 0.88 0.87
1.52 1.46 1.40 1.34 1.20 1.07 1.00 1.05 1.09 1.16 1.28 1.31 1.31 1.25 1.22 1.28 1.36 1.36 1.31 1.47 1.64 1.81 1.82 1.82 1.81 1.84 1.76 1.83 1.77 1.68 1.74 1.80 1.67 1.40 1.40 1.15 1.08 1.11 1.08 1.00 0.92 0.89 0.85
1.45 1.41 1.32 1.22 1.13 0.98 0.99 0.97 1.02 1.11 1.22 1.26 1.23 1.22 1.18 1.17 1.17 1.18 1.15 1.25 1.46 1.58 1.69 1.77 1.78 1.81 1.80 1.89 1.91 1.86 1.86 1.90 1.85 1.54 1.60 1.50 1.36 1.42 1.28 1.13 1.01 0.87 0.80
1.46 1.37 1.26 1.21 1.17 1.10 0.96 0.85 0.89 1.02 1.17 1.18 1.18 1.25 1.10 0.99 1.09 1.09 1.12 1.12 1.16 1.21 1.34 1.56 1.75 1.82 1.95 2.09 2.19 2.10 2.03 1.97 1.95 1.73 1.85 1.78 1.62 1.64 1.32 1.13 1.15 0.98 0.85
1.37 1.37 1.33 1.37 1.37 1.16 0.91 0.76 0.86 1.05 1.18 1.08 1.05 1.12 1.18 1.19 1.11 1.08 1.10 1.14 1.15 1.14 1.15 1.23 1.51 1.63 1.67 1.89 2.12 2.15 2.15 2.05 2.01 1.98 2.10 2.04 1.64 1.55 1.35 1.50 1.46 1.25 1.06
1.29 1.31 1.34 1.40 1.36 1.22 1.00 0.82 0.86 1.02 1.14 1.10 1.07 1.02 1.01 1.05 1.02 1.04 1.15 1.33 1.37 1.32 1.06 1.10 1.24 1.34 1.40 1.54 1.70 1.93 2.16 2.26 2.16 2.00 2.02 2.03 1.78 1.67 1.67 1.84 1.73 1.64 1.41
1.21 1.20 1.24 1.34 1.29 1.19 0.98 0.78 0.77 0.84 0.98 1.13 1.24 1.20 1.12 1.02 0.98 1.03 1.19 1.40 1.45 1.42 1.40 1.50 1.61 1.59 1.56 1.61 1.57 1.77 2.12 2.28 2.23 2.13 1.98 2.06 2.02 1.99 2.06 2.04 2.02 1.89 1.78